This is the latest recevied weather packets stored in our database for station/object DB0LS-15. If no packets are shown the sender has not sent any weather packets the latest 1 day(s).
| Time | Temp. | Humidity | Pressure | Rain* | Wind** | Luminosity | Snow |
|---|---|---|---|---|---|---|---|
| 1778018138 | 13.89° C | 93% | 988.3 hPa | 1.78 mm | 2.24 m/s, 26° | - | - |
| 1778017534 | 13.89° C | 92% | 988.7 hPa | 0 mm | 1.79 m/s, 28° | - | - |
| 1778016930 | 13.89° C | 92% | 988.7 hPa | 0 mm | 1.34 m/s, 36° | - | - |
| 1778016329 | 13.89° C | 92% | 988.7 hPa | 0 mm | 0.89 m/s, 44° | - | - |
| 1778015723 | 14.44° C | 91% | 988.7 hPa | 0 mm | 1.34 m/s, 32° | - | - |
| 1778015119 | 14.44° C | 91% | 988.7 hPa | 0 mm | 1.79 m/s, 52° | - | - |
| 1778014515 | 14.44° C | 91% | 988.3 hPa | 0 mm | 1.34 m/s, 45° | - | - |
| 1778013972 | 14.44° C | 90% | 988 hPa | 0 mm | 2.24 m/s, 36° | - | - |
| 1778013368 | 14.44° C | 90% | 987.9 hPa | 0 mm | 1.79 m/s, 49° | - | - |
| 1778012764 | 14.44° C | 90% | 987.9 hPa | 0 mm | 1.79 m/s, 27° | - | - |
| 1778012160 | 14.44° C | 89% | 987.9 hPa | 0 mm | 1.34 m/s, 45° | - | - |
| 1778011557 | 15° C | 89% | 987.6 hPa | 0 mm | 2.24 m/s, 45° | - | - |
| 1778010953 | 15° C | 88% | 987.7 hPa | 0 mm | 2.24 m/s, 43° | - | - |
| 1778010349 | 15° C | 87% | 987.9 hPa | 0 mm | 2.24 m/s, 33° | - | - |
| 1778009745 | 15.56° C | 86% | 988.1 hPa | 0 mm | 1.79 m/s, 31° | - | - |
| 1778009142 | 15.56° C | 85% | 988 hPa | 0 mm | 2.24 m/s, 45° | - | - |
| 1778008538 | 15.56° C | 84% | 987.9 hPa | 0 mm | 2.24 m/s, 56° | - | - |
| 1778007936 | 15.56° C | 84% | 988.1 hPa | 0 mm | 1.79 m/s, 58° | - | - |
| 1778007330 | 15.56° C | 83% | 988.1 hPa | 0 mm | 1.34 m/s, 41° | - | - |
| 1778006727 | 16.11° C | 83% | 988.2 hPa | 0 mm | 1.79 m/s, 33° | - | - |
| 1778006123 | 16.11° C | 83% | 988.3 hPa | 0 mm | 1.34 m/s, 53° | - | - |
| 1778005519 | 16.11° C | 83% | 988.3 hPa | 0 mm | 0.89 m/s, 55° | - | - |
| 1778004915 | 16.11° C | 83% | 988.3 hPa | 0 mm | 1.34 m/s, 52° | - | - |
| 1778004372 | 16.67° C | 83% | 988.4 hPa | 0 mm | 0.89 m/s, 37° | - | - |
| 1778003768 | 16.67° C | 82% | 988.3 hPa | 0 mm | 1.34 m/s, 40° | - | - |
* Rain latest hour (hover to see other rain measurements)
** Current wind speed in m/s (hover to see current wind gust speed)